Location: Winthrop
(48.4780°N, 120.1850°W)
Time: 09:27:02
(UTC-08:00)

Transit 2A - Visible Passes

Search period start: 07 February 2023 00:00
Search period end: 17 February 2023 00:00
Orbit: 593 x 963 km, 66.7° (Epoch: 07 February)

Date Brightness Start Highest point End Pass type
(mag) Time Alt. Az. Time Alt. Az. Time Alt. Az.
07 Feb 7.8 17:54:56 10° W 17:59:17 27° NW 18:04:04 10° NNE visible
07 Feb 8.5 19:41:56 10° NW 19:44:33 13° N 19:47:06 10° NNE visible
07 Feb 8.9 21:26:59 10° NNW 21:27:34 11° NNW 21:27:34 11° NNW visible
08 Feb 8.5 19:06:35 10° NW 19:09:32 14° NNW 19:12:38 10° NNE visible
08 Feb 8.7 20:52:23 10° NNW 20:54:05 13° N 20:54:05 13° N visible
09 Feb 8.3 18:31:12 10° WNW 18:34:33 16° NNW 18:38:05 10° NNE visible
09 Feb 8.5 20:17:40 10° NNW 20:20:17 13° N 20:20:35 13° N visible
09 Feb 9.1 22:00:55 10° NNW 22:01:03 10° NNW 22:01:03 10° NNW visible
10 Feb 8.2 17:55:51 10° WNW 17:59:35 19° NNW 18:03:35 10° NNE visible
10 Feb 8.5 19:42:46 10° NNW 19:45:14 13° N 19:47:04 11° NNE visible
10 Feb 8.8 21:26:27 10° NNW 21:27:33 14° N 21:27:33 14° N visible
11 Feb 8.5 19:07:40 10° NNW 19:10:10 13° N 19:12:44 10° NNE visible
11 Feb 8.5 20:51:58 10° NNW 20:54:02 16° N 20:54:02 16° N visible
12 Feb 8.5 18:32:25 10° NW 18:35:07 13° N 18:37:55 10° NNE visible
12 Feb 8.4 20:17:25 10° NNW 20:20:31 16° NNE 20:20:31 16° NNE visible
12 Feb 8.9 22:00:17 10° NNW 22:00:59 13° NNW 22:00:59 13° NNW visible
13 Feb 8.4 17:57:03 10° NW 18:00:05 15° NNW 18:03:13 10° NNE visible
13 Feb 8.3 19:42:49 10° NNW 19:45:52 14° NNE 19:47:00 14° NNE visible
13 Feb 8.6 21:25:49 10° NNW 21:27:28 17° NNW 21:27:28 17° NNW visible
14 Feb 8.4 19:08:04 10° NNW 19:10:49 13° N 19:13:30 10° NE visible
14 Feb 8.2 20:51:22 10° NNW 20:53:58 20° N 20:53:58 20° N visible
14 Feb 9.2 22:34:13 10° NNW 22:34:26 11° NNW 22:34:26 11° NNW visible
15 Feb 8.4 18:33:11 10° NNW 18:35:45 13° N 18:38:24 10° NNE visible
15 Feb 8.1 20:16:52 10° NNW 20:20:28 20° NNE 20:20:28 20° NNE visible
15 Feb 8.8 21:59:41 10° NNW 22:00:56 17° NNW 22:00:56 17° NNW visible
16 Feb 8.4 17:58:05 10° NNW 18:00:40 13° N 18:03:20 10° NNE visible
16 Feb 8.1 19:42:21 10° NNW 19:46:23 18° NNE 19:46:59 18° NNE visible
16 Feb 8.3 21:25:11 10° NNW 21:27:27 23° NNW 21:27:27 23° NNW visible
